TimeCST,TemperatureF,Dew PointF,Humidity,Sea Level PressureIn,VisibilityMPH,Wind Direction,Wind SpeedMPH,Gust SpeedMPH,PrecipitationIn,Events,Conditions,WindDirDegrees,DateUTC
12:53 AM,36.0,30.9,82,30.35,10.0,North,3.5,-,N/A,,Clear,10,2013-01-04 06:53:00
1:53 AM,35.1,30.9,85,30.35,10.0,North,3.5,-,N/A,,Clear,350,2013-01-04 07:53:00
2:53 AM,35.1,30.0,82,30.34,10.0,North,3.5,-,N/A,,Clear,360,2013-01-04 08:53:00
3:53 AM,36.0,30.0,79,30.34,10.0,North,4.6,-,N/A,,Clear,360,2013-01-04 09:53:00
4:53 AM,35.1,28.9,78,30.34,10.0,North,3.5,-,N/A,,Clear,350,2013-01-04 10:53:00
5:53 AM,34.0,28.9,82,30.36,10.0,NNW,3.5,-,N/A,,Clear,340,2013-01-04 11:53:00
7:53 AM,37.9,30.0,73,30.41,10.0,NNE,3.5,-,N/A,,Clear,20,2013-01-04 13:53:00
8:53 AM,42.1,32.0,67,30.42,10.0,North,9.2,-,N/A,,Clear,10,2013-01-04 14:53:00
9:53 AM,44.1,30.9,60,30.41,10.0,NNE,8.1,-,N/A,,Clear,20,2013-01-04 15:53:00
10:53 AM,50.0,30.9,48,30.41,10.0,NNE,6.9,-,N/A,,Clear,30,2013-01-04 16:53:00
11:53 AM,52.0,32.0,47,30.39,10.0,Variable,4.6,-,N/A,,Clear,0,2013-01-04 17:53:00
12:53 PM,53.1,30.9,43,30.36,10.0,North,8.1,-,N/A,,Clear,10,2013-01-04 18:53:00
1:53 PM,57.0,30.0,36,30.34,10.0,NNE,9.2,-,N/A,,Clear,30,2013-01-04 19:53:00
2:53 PM,55.9,30.9,39,30.33,10.0,NNE,6.9,-,N/A,,Clear,30,2013-01-04 20:53:00
3:53 PM,55.9,30.9,39,30.35,10.0,Calm,Calm,-,N/A,,Clear,0,2013-01-04 21:53:00
4:53 PM,48.0,37.9,68,30.35,10.0,Calm,Calm,-,N/A,,Clear,0,2013-01-04 22:53:00
5:53 PM,45.0,37.9,76,30.37,10.0,North,3.5,-,N/A,,Clear,350,2013-01-04 23:53:00
6:53 PM,46.9,33.1,59,30.38,10.0,North,3.5,-,N/A,,Clear,350,2013-01-05 00:53:00
7:53 PM,43.0,35.1,74,30.40,10.0,Calm,Calm,-,N/A,,Clear,0,2013-01-05 01:53:00
8:53 PM,39.9,35.1,83,30.39,10.0,Calm,Calm,-,N/A,,Clear,0,2013-01-05 02:53:00
9:53 PM,39.0,36.0,89,30.39,10.0,Calm,Calm,-,N/A,,Clear,0,2013-01-05 03:53:00
10:53 PM,37.9,35.1,89,30.38,10.0,Calm,Calm,-,N/A,,Clear,0,2013-01-05 04:53:00
11:53 PM,39.0,35.1,86,30.36,10.0,North,3.5,-,N/A,,Clear,360,2013-01-05 05:53:00